Flag for Romania Weather past 2 weeks in Cluj-Napoca, Romania

Now
50 °F

Scattered clouds.


Feels Like: 43 °F
Forecast: 38 / 47 °F
Wind: 25 mph from West

Location: Cluj Airport-Napoca

Current Time: Apr 1, 2015 at 6:14:46 PM

Latest Report: Apr 1, 2015 at 5:00 PM


Visibility: N/A

Pressure: 29.71 "Hg

Humidity: 37%

Dew point: 25 °F

Location of Cluj-NapocaLocation

Historic Weather in Cluj-Napoca — Graph

°F

Cluj-Napoca temperature yesterday

Maximum temperature yesterday: 55 °F (at 2:00 PM)
Minimum temperature yesterday: 39 °F (at 6:30 AM)
Average temperature yesterday: 47 °F

Past Weeks' High & Low Weather Summary

 TemperatureHumidityPressure
High72 °F (Mar 26, 4:00 PM)100% (Mar 19, 7:30 PM)30.48 "Hg (Mar 19, 7:30 PM)
Low25 °F (Mar 18, 6:30 AM)26% (Mar 17, 4:30 PM)29.56 "Hg (Mar 30, 1:00 PM)
Average45 °F67%29.97 "Hg
* Reported Mar 17 4:00 PM — Apr 1 5:00 PM, Cluj-Napoca, Weather by CustomWeather, © 2015

Note: Actual official high and low records may vary slightly from our data, if they occured in-between our weather recording intervals... More about our weather records

Advertising

Cluj-Napoca weather history for previous 24 hours

 ConditionsComfort  
Time TempWeatherWind HumidityBarometerVisibility
5:00 PM
Wed, Apr 1
50 °FScattered clouds.25 mph37%29.71 "HgN/A
4:00 PM48 °FScattered clouds.21 mph43%29.68 "HgN/A
3:00 PM50 °FScattered showers. Scattered clouds.28 mph40%29.68 "HgN/A
2:30 PM52 °FScattered clouds.28 mph41%29.68 "HgN/A
2:00 PM52 °FScattered clouds.29 mph38%29.68 "HgN/A
12:30 PM52 °FPassing clouds.24 mph41%29.68 "HgN/A
12:00 PM50 °FPassing clouds.29 mph40%29.68 "HgN/A
10:30 AM48 °FPassing clouds.25 mph46%29.68 "HgN/A
10:00 AM48 °FPassing clouds.23 mph46%29.68 "HgN/A
8:00 AM45 °FClear.14 mph71%29.65 "Hg10 mi
7:00 AM45 °FClear.14 mph71%29.62 "Hg10 mi
6:30 AM45 °FClear.10 mph76%29.59 "Hg10 mi
5:00 AM48 °FPassing clouds.10 mph76%29.59 "HgN/A
3:00 AM43 °FOvercast.5 mph100%29.56 "HgN/A
2:00 AM43 °FPassing clouds.7 mph100%29.56 "HgN/A
12:00 AM43 °FSprinkles. Mostly cloudy.6 mph100%29.59 "HgN/A
11:00 PM
Tue, Mar 31
43 °FSprinkles. Passing clouds.6 mph93%29.56 "HgN/A
10:00 PM45 °FSprinkles. Mostly cloudy.3 mph93%29.56 "HgN/A
9:00 PM45 °FSprinkles. Mostly cloudy.2 mph87%29.59 "HgN/A
8:30 PM46 °FSprinkles. Scattered clouds.5 mph76%29.59 "HgN/A
8:00 PM46 °FSprinkles. Broken clouds.6 mph71%29.56 "HgN/A
7:00 PM46 °FSprinkles. Partly sunny.8 mph66%29.56 "HgN/A
6:30 PM48 °FSprinkles. Partly sunny.7 mph62%29.56 "HgN/A
6:00 PM48 °FPartly sunny.9 mph58%29.59 "HgN/A
Weather by CustomWeather, © 2015

See weather overviewHow to use our weather pages